Tracking 30923 objects as of 1-Jul-2025
HD Live streaming from Space Station
objects crossing your sky now

THORAD AGENA D DEB

Track THORAD AGENA D DEB now!
10-day predictions


NORAD ID: 42508
Int'l Code: 1970-025RN
Perigee: 839.5 km
Apogee: 1,015.3 km
Inclination: 99.9 °
Period: 103.4 minutes
Semi major axis: 7298 km
RCS: Unknown
Launch date: April 8, 1970
Source: United States (US)
Launch site: AIR FORCE WESTERN TEST RANGE (AFWTR)

Note: This is SATELLITE DEBRIS
Your satellite tracking list
Your tracking list is empty




NASA's NSSDC Master Catalog

Two Line Element Set (TLE):
1 42508U 70025RN  25176.79739642  .00000424  00000-0  34720-3 0  9990
2 42508  99.8540  22.4881 0120381 205.0287 154.5004 13.92389386126639
Source of the keplerian elements: AFSPC